OBJECT D, 47694

Orbit data source: Space-Track

You're viewing an Uncataloged Satellite

Recently launched and/or uncataloged satellites may have evolving metadata. Metadata may include but not limited to: Owner, Maufacturer, Bus, Motor, and Mission.

OBJECT D, 47694 is a satellite owned by CNSA (CN) in LEO that was launched on Wed, 24 Feb 2021 UTC launched from the Jiuquan Satellite Launch Center, China (JSC). Unknown objects in Earth's orbit typically refer to objects detected orbiting the Earth but have not yet been identified or cataloged. These objects could be anything from previously untracked satellites, spent rocket stages, debris from satellite collisions, or even natural meteoroids temporarily captured by Earth's gravity.

Loading next visibility...
Identifier
47694, 2021-014D
Orbit
LEO
Country
Flag of CNCN / PRC
Related business
Manufacturer
Unknown
Mission
Spacecraft
Bus & Motor
Unknown
Mass
Unknown
Launch date (UTC)
2021-02-24 (5 years ago)
Launch vehicle
Unknown
Launch site
Jiuquan Satellite Launch Center, China (JSC)
Object type
Unknown
Shape & HBR
Unknown shape, 2.8 m
Radar Cross Section
Large (>1 m²)

Expand to show TLE details & history
Last TLE update: 22 hours ago

TLE from 22 hours ago
0 OBJECT D
1 47694U 21014D   26172.50826892 -.00000095  00000-0 -70248-5 0  9998
2 47694  63.4029 195.2517 0173157   1.6672 358.4895 13.44614185261268
Epoch: 2026-06-21T12:11Z
TLE epoch observation values (Epoch: 2026-06-21T12:11:54.434Z)
Latitude
-0.00003°
Longitude
102.56735°
Altitude
964.587 km
Speed
7.433 km/s
True Right ascension
13h 01m 00s
True Declination
0° 00' 00"
Sunlit
Object was in daylight at epoch
Visualization orbit readout
Latitude
Unknown
Longitude
Unknown
Altitude
Unknown
Speed
Unknown
Apparent Right ascension
Unknown
Apparent Declination
Unknown
Sunlit
N/A
Visualization observer readout
Local Sidereal Time
21:28:18
Azimuth
Unknown
Elevation
Unknown
Doppler factor
Unknown
Orbital elements
Apogee altitude
1,220.302 km
Perigee altitude
961.636 km
Semi-major axis
7,469.106 km
Eccentricity
0.01732
Inclination
63.4029°
RAAN
195.2517°
Arg. of periapsis
1.6672°
True anomaly
358.43604°
Mean anomaly
358.4895°
Eccentric anomaly
358.46289°
Mean motion
3.36233 °/min
Orbital period
107.07 mins
BSTAR
-0.0000070248
Loading maneuver chart data...
Computing Atmospheric mass density...
Loading historical data...
Loading historical data...
Loading historical data...
Loading historical data...
Loading historical data...
Loading historical data...
Loading historical data...

Documentation

Showing up to 5 results
|